Time,TemperatureF,DewpointF,PressureIn,WindDirection,WindDirectionDegrees,WindSpeedMPH,WindSpeedGustMPH,Humidity,HourlyPrecipIn,Conditions,Clouds,dailyrainin,SoftwareType,DateUTC
2013-11-25 00:01:00,15.2,5.5,30.61,SW,225,6.0,6.0,65,0.00,CLR,,0.00,WeatherDisplay:10.37,2013-11-25 05:01:00,
2013-11-25 00:02:00,15.2,5.5,30.61,SW,225,6.0,6.0,65,0.00,CLR,,0.00,WeatherDisplay:10.37,2013-11-25 05:02:00,
2013-11-25 00:03:00,15.2,5.5,30.61,SW,223,5.0,5.0,65,0.00,CLR,,0.00,WeatherDisplay:10.37,2013-11-25 05:03:00,
2013-11-25 00:08:00,15.1,5.4,30.61,SW,229,5.0,5.0,65,0.00,CLR,,0.00,WeatherDisplay:10.37,2013-11-25 05:08:00,
2013-11-25 00:13:00,15.1,5.4,30.61,SW,229,5.0,5.0,65,0.00,CLR,,0.00,WeatherDisplay:10.37,2013-11-25 05:13:00,
2013-11-25 00:18:00,15.1,5.4,30.61,SW,225,6.0,6.0,65,0.00,CLR,,0.00,WeatherDisplay:10.37,2013-11-25 05:18:00,
2013-11-25 00:23:00,15.1,5.4,30.62,SW,218,6.0,6.0,65,0.00,CLR,,0.00,WeatherDisplay:10.37,2013-11-25 05:23:00,
2013-11-25 00:28:00,15.0,5.3,30.62,SW,223,6.0,6.0,65,0.00,CLR,,0.00,WeatherDisplay:10.37,2013-11-25 05:28:00,
2013-11-25 00:33:00,15.0,5.3,30.61,SW,225,5.0,5.0,65,0.00,CLR,,0.00,WeatherDisplay:10.37,2013-11-25 05:33:00,
2013-11-25 00:38:00,15.0,5.3,30.61,WSW,237,5.0,5.0,65,0.00,CLR,,0.00,WeatherDisplay:10.37,2013-11-25 05:38:00,
2013-11-25 00:43:00,15.0,5.3,30.61,SW,234,6.0,6.0,65,0.00,CLR,,0.00,WeatherDisplay:10.37,2013-11-25 05:43:00,
2013-11-25 00:48:00,15.0,5.3,30.62,SW,236,5.0,5.0,65,0.00,CLR,,0.00,WeatherDisplay:10.37,2013-11-25 05:48:00,
2013-11-25 00:53:00,15.0,5.3,30.62,SW,228,5.0,5.0,65,0.00,CLR,,0.00,WeatherDisplay:10.37,2013-11-25 05:53:00,
2013-11-25 00:58:00,14.9,5.2,30.62,SW,229,5.0,5.0,65,0.00,CLR,,0.00,WeatherDisplay:10.37,2013-11-25 05:58:00,
2013-11-25 01:03:00,14.9,5.6,30.61,SW,226,5.0,5.0,66,0.00,CLR,,0.00,WeatherDisplay:10.37,2013-11-25 06:03:00,
2013-11-25 01:08:00,14.9,5.6,30.61,SW,225,5.0,5.0,66,0.00,CLR,,0.00,WeatherDisplay:10.37,2013-11-25 06:08:00,
2013-11-25 01:13:00,14.9,5.6,30.61,SW,223,4.0,4.0,66,0.00,CLR,,0.00,WeatherDisplay:10.37,2013-11-25 06:13:00,
2013-11-25 01:18:00,14.8,5.5,30.61,SW,229,4.6,4.6,66,0.00,CLR,,0.00,WeatherDisplay:10.37,2013-11-25 06:18:00,
2013-11-25 01:23:00,14.8,5.5,30.61,SW,222,5.0,5.0,66,0.00,CLR,,0.00,WeatherDisplay:10.37,2013-11-25 06:23:00,
2013-11-25 01:28:00,14.7,5.4,30.61,SW,222,6.0,6.0,66,0.00,CLR,,0.00,WeatherDisplay:10.37,2013-11-25 06:28:00,
2013-11-25 01:33:00,14.7,5.4,30.62,SW,229,5.0,5.0,66,0.00,CLR,,0.00,WeatherDisplay:10.37,2013-11-25 06:33:00,
2013-11-25 01:38:00,14.6,5.3,30.62,SW,225,5.0,5.0,66,0.00,CLR,,0.00,WeatherDisplay:10.37,2013-11-25 06:38:00,
2013-11-25 01:43:00,14.6,5.3,30.62,SW,223,7.0,7.0,66,0.00,CLR,,0.00,WeatherDisplay:10.37,2013-11-25 06:43:00,
2013-11-25 01:48:00,14.6,5.3,30.62,SW,221,6.0,6.0,66,0.00,CLR,,0.00,WeatherDisplay:10.37,2013-11-25 06:48:00,
2013-11-25 01:53:00,14.6,5.6,30.62,SW,225,8.0,8.0,67,0.00,CLR,,0.00,WeatherDisplay:10.37,2013-11-25 06:53:00,
2013-11-25 01:58:00,14.6,5.6,30.62,SW,236,8.1,8.1,67,0.00,CLR,,0.00,WeatherDisplay:10.37,2013-11-25 06:58:00,
2013-11-25 02:03:00,14.6,5.6,30.62,SW,225,8.1,8.1,67,0.00,CLR,,0.00,WeatherDisplay:10.37,2013-11-25 07:03:00,
2013-11-25 02:08:00,14.7,5.7,30.61,SSW,207,7.0,7.0,67,0.00,CLR,,0.00,WeatherDisplay:10.37,2013-11-25 07:08:00,
2013-11-25 02:13:00,14.7,5.7,30.62,SW,214,7.0,7.0,67,0.00,CLR,,0.00,WeatherDisplay:10.37,2013-11-25 07:13:00,
2013-11-25 02:18:00,14.7,5.7,30.62,SW,228,10.4,10.4,67,0.00,CLR,,0.00,WeatherDisplay:10.37,2013-11-25 07:18:00,
2013-11-25 02:23:00,14.8,5.8,30.62,SW,233,11.5,11.5,67,0.00,CLR,,0.00,WeatherDisplay:10.37,2013-11-25 07:23:00,
2013-11-25 02:28:00,14.9,5.9,30.62,SW,231,12.0,12.0,67,0.00,CLR,,0.00,WeatherDisplay:10.37,2013-11-25 07:28:00,
2013-11-25 02:33:00,14.9,5.9,30.62,SW,236,12.0,12.0,67,0.00,CLR,,0.00,WeatherDisplay:10.37,2013-11-25 07:33:00,
2013-11-25 02:38:00,15.1,6.1,30.62,SW,229,13.0,13.0,67,0.00,CLR,,0.00,WeatherDisplay:10.37,2013-11-25 07:38:00,
2013-11-25 02:43:00,15.2,6.2,30.62,SW,236,13.0,13.0,67,0.00,CLR,,0.00,WeatherDisplay:10.37,2013-11-25 07:43:00,
2013-11-25 02:48:00,15.3,6.3,30.62,SW,225,12.0,12.0,67,0.00,CLR,,0.00,WeatherDisplay:10.37,2013-11-25 07:48:00,
2013-11-25 02:53:00,15.3,6.3,30.62,SW,225,11.5,11.5,67,0.00,CLR,,0.00,WeatherDisplay:10.37,2013-11-25 07:53:00,
2013-11-25 02:58:00,15.3,6.3,30.62,WSW,240,12.7,12.7,67,0.00,CLR,,0.00,WeatherDisplay:10.37,2013-11-25 07:58:00,
2013-11-25 03:03:00,15.4,6.1,30.62,SW,224,9.2,9.2,66,0.00,CLR,,0.00,WeatherDisplay:10.37,2013-11-25 08:03:00,
2013-11-25 03:08:00,15.4,6.1,30.62,WSW,238,10.0,10.0,66,0.00,CLR,,0.00,WeatherDisplay:10.37,2013-11-25 08:08:00,
2013-11-25 03:13:00,15.4,6.1,30.62,SW,223,9.2,9.2,66,0.00,CLR,,0.00,WeatherDisplay:10.37,2013-11-25 08:13:00,
2013-11-25 03:18:00,15.3,6.0,30.62,SW,225,10.0,10.0,66,0.00,CLR,,0.00,WeatherDisplay:10.37,2013-11-25 08:18:00,
2013-11-25 03:23:00,15.3,6.3,30.62,SW,221,9.2,9.2,67,0.00,CLR,,0.00,WeatherDisplay:10.37,2013-11-25 08:23:00,
2013-11-25 03:28:00,15.3,6.3,30.62,SW,232,13.0,13.0,67,0.00,CLR,,0.00,WeatherDisplay:10.37,2013-11-25 08:28:00,
2013-11-25 03:33:00,15.2,6.2,30.62,SW,226,12.0,12.0,67,0.00,CLR,,0.00,WeatherDisplay:10.37,2013-11-25 08:33:00,
2013-11-25 03:38:00,15.2,6.2,30.62,SW,228,10.4,10.4,67,0.00,CLR,,0.00,WeatherDisplay:10.37,2013-11-25 08:38:00,
2013-11-25 03:43:00,15.3,6.3,30.62,SW,229,11.5,11.5,67,0.00,CLR,,0.00,WeatherDisplay:10.37,2013-11-25 08:43:00,
2013-11-25 03:45:00,34.4,9.5,30.38,SW,229,15.0,18.0,35,0.00,CLR,CLR,0.00,WeatherDisplay:10.37,2013-11-25 08:45:00,
2013-11-25 03:48:00,15.3,6.3,30.62,SW,222,10.0,10.0,67,0.00,CLR,,0.00,WeatherDisplay:10.37,2013-11-25 08:48:00,
2013-11-25 03:50:00,34.4,9.5,30.39,SW,225,14.0,17.0,35,0.00,CLR,CLR,0.00,WeatherDisplay:10.37,2013-11-25 08:50:00,
2013-11-25 03:53:00,15.2,6.2,30.61,SW,225,8.1,8.1,67,0.00,CLR,,0.00,WeatherDisplay:10.37,2013-11-25 08:53:00,
2013-11-25 03:55:00,34.4,9.5,30.39,SW,225,12.0,18.0,35,0.00,CLR,CLR,0.00,WeatherDisplay:10.37,2013-11-25 08:55:00,
2013-11-25 03:58:00,15.2,6.2,30.62,WSW,241,8.1,8.1,67,0.00,CLR,,0.00,WeatherDisplay:10.37,2013-11-25 08:58:00,
2013-11-25 04:00:00,34.3,10.1,30.38,SW,223,10.0,13.0,36,0.00,CLR,CLR,0.00,WeatherDisplay:10.37,2013-11-25 09:00:00,
2013-11-25 04:03:00,15.0,6.0,30.62,SW,225,8.1,8.1,67,0.00,CLR,,0.00,WeatherDisplay:10.37,2013-11-25 09:03:00,
2013-11-25 04:05:00,34.2,10.0,30.37,SW,221,10.0,14.0,36,0.00,CLR,CLR,0.00,WeatherDisplay:10.37,2013-11-25 09:05:00,
2013-11-25 04:08:00,15.0,6.0,30.62,SW,227,6.0,6.0,67,0.00,CLR,,0.00,WeatherDisplay:10.37,2013-11-25 09:08:00,
2013-11-25 04:10:00,34.1,10.5,30.37,SW,219,6.0,14.0,37,0.00,CLR,CLR,0.00,WeatherDisplay:10.37,2013-11-25 09:10:00,
2013-11-25 04:13:00,14.9,5.9,30.62,SSW,211,6.0,6.0,67,0.00,CLR,,0.00,WeatherDisplay:10.37,2013-11-25 09:13:00,
2013-11-25 04:15:00,34.0,10.4,30.37,SW,221,6.0,9.0,37,0.00,CLR,CLR,0.00,WeatherDisplay:10.37,2013-11-25 09:15:00,
2013-11-25 04:18:00,14.9,5.9,30.62,SW,222,5.0,5.0,67,0.00,CLR,,0.00,WeatherDisplay:10.37,2013-11-25 09:18:00,
2013-11-25 04:20:00,33.9,10.3,30.37,SW,222,6.0,10.0,37,0.00,CLR,CLR,0.00,WeatherDisplay:10.37,2013-11-25 09:20:00,
2013-11-25 04:23:00,14.8,5.8,30.62,SW,223,5.0,5.0,67,0.00,CLR,,0.00,WeatherDisplay:10.37,2013-11-25 09:23:00,
2013-11-25 04:25:00,33.9,10.9,30.37,SW,216,5.0,8.0,38,0.00,CLR,CLR,0.00,WeatherDisplay:10.37,2013-11-25 09:25:00,
2013-11-25 04:28:00,14.8,5.8,30.62,SW,223,5.0,5.0,67,0.00,CLR,,0.00,WeatherDisplay:10.37,2013-11-25 09:28:00,
2013-11-25 04:30:00,33.9,10.9,30.37,SSW,210,6.0,8.0,38,0.00,CLR,CLR,0.00,WeatherDisplay:10.37,2013-11-25 09:30:00,
2013-11-25 04:33:00,14.7,6.0,30.62,SW,217,4.6,4.6,68,0.00,CLR,,0.00,WeatherDisplay:10.37,2013-11-25 09:33:00,
2013-11-25 04:35:00,33.8,11.4,30.38,SSW,211,3.0,7.0,39,0.00,CLR,CLR,0.00,WeatherDisplay:10.37,2013-11-25 09:35:00,
2013-11-25 04:38:00,14.7,6.0,30.62,SSW,207,5.0,5.0,68,0.00,CLR,,0.00,WeatherDisplay:10.37,2013-11-25 09:38:00,
2013-11-25 04:40:00,33.8,11.4,30.38,SW,219,6.0,8.0,39,0.00,CLR,CLR,0.00,WeatherDisplay:10.37,2013-11-25 09:40:00,
2013-11-25 04:43:00,14.6,6.0,30.62,SW,217,5.0,5.0,68,0.00,CLR,,0.00,WeatherDisplay:10.37,2013-11-25 09:43:00,
2013-11-25 04:45:00,33.8,10.8,30.37,SW,219,7.0,11.0,38,0.00,CLR,CLR,0.00,WeatherDisplay:10.37,2013-11-25 09:45:00,
2013-11-25 04:48:00,14.6,6.0,30.62,SW,215,5.0,5.0,68,0.00,CLR,,0.00,WeatherDisplay:10.37,2013-11-25 09:48:00,
2013-11-25 04:50:00,33.8,11.4,30.38,SW,220,7.0,9.0,39,0.00,CLR,CLR,0.00,WeatherDisplay:10.37,2013-11-25 09:50:00,
2013-11-25 04:53:00,14.5,5.9,30.62,SW,230,5.0,5.0,68,0.00,CLR,,0.00,WeatherDisplay:10.37,2013-11-25 09:53:00,
2013-11-25 04:55:00,33.8,11.4,30.38,SW,223,7.0,10.0,39,0.00,CLR,CLR,0.00,WeatherDisplay:10.37,2013-11-25 09:55:00,
2013-11-25 04:58:00,14.5,5.9,30.62,SW,222,5.0,5.0,68,0.00,CLR,,0.00,WeatherDisplay:10.37,2013-11-25 09:58:00,
2013-11-25 05:00:00,33.8,11.4,30.38,SW,223,7.0,8.0,39,0.00,CLR,CLR,0.00,WeatherDisplay:10.37,2013-11-25 10:00:00,
2013-11-25 05:03:00,14.5,5.9,30.61,SW,221,7.0,7.0,68,0.00,CLR,,0.00,WeatherDisplay:10.37,2013-11-25 10:03:00,
2013-11-25 05:05:00,33.8,11.4,30.38,SW,225,8.0,10.0,39,0.00,CLR,CLR,0.00,WeatherDisplay:10.37,2013-11-25 10:05:00,
2013-11-25 05:08:00,14.6,6.0,30.61,SW,222,6.0,6.0,68,0.00,CLR,,0.00,WeatherDisplay:10.37,2013-11-25 10:08:00,
2013-11-25 05:10:00,33.8,11.4,30.38,SW,225,8.0,14.0,39,0.00,CLR,CLR,0.00,WeatherDisplay:10.37,2013-11-25 10:10:00,
2013-11-25 05:13:00,14.6,6.0,30.61,SW,226,5.8,5.8,68,0.00,CLR,,0.00,WeatherDisplay:10.37,2013-11-25 10:13:00,
2013-11-25 05:15:00,33.8,11.4,30.38,SW,225,8.0,12.0,39,0.00,CLR,CLR,0.00,WeatherDisplay:10.37,2013-11-25 10:15:00,
2013-11-25 05:18:00,14.6,6.0,30.61,SW,224,6.0,6.0,68,0.00,CLR,,0.00,WeatherDisplay:10.37,2013-11-25 10:18:00,
2013-11-25 05:20:00,33.8,11.4,30.38,SW,225,9.0,12.0,39,0.00,CLR,CLR,0.00,WeatherDisplay:10.37,2013-11-25 10:20:00,
2013-11-25 05:23:00,14.6,6.0,30.61,SSW,211,5.0,5.0,68,0.00,CLR,,0.00,WeatherDisplay:10.37,2013-11-25 10:23:00,
2013-11-25 05:28:00,14.6,6.0,30.61,SW,229,6.0,6.0,68,0.00,CLR,,0.00,WeatherDisplay:10.37,2013-11-25 10:28:00,
2013-11-25 05:33:00,14.7,6.0,30.61,SW,221,5.0,5.0,68,0.00,CLR,,0.00,WeatherDisplay:10.37,2013-11-25 10:33:00,
2013-11-25 05:38:00,14.7,6.0,30.61,SW,227,6.0,6.0,68,0.00,CLR,,0.00,WeatherDisplay:10.37,2013-11-25 10:38:00,
2013-11-25 05:43:00,14.8,6.1,30.61,SW,218,6.0,6.0,68,0.00,CLR,,0.00,WeatherDisplay:10.37,2013-11-25 10:43:00,
2013-11-25 05:48:00,14.8,6.1,30.61,SW,232,5.0,5.0,68,0.00,CLR,,0.00,WeatherDisplay:10.37,2013-11-25 10:48:00,
2013-11-25 05:53:00,14.8,6.1,30.60,SW,217,5.8,5.8,68,0.00,CLR,,0.00,WeatherDisplay:10.37,2013-11-25 10:53:00,
2013-11-25 05:58:00,14.8,6.1,30.60,SW,215,5.0,5.0,68,0.00,CLR,,0.00,WeatherDisplay:10.37,2013-11-25 10:58:00,
2013-11-25 06:03:00,14.8,6.1,30.60,SW,215,5.0,5.0,68,0.00,CLR,,0.00,WeatherDisplay:10.37,2013-11-25 11:03:00,
2013-11-25 06:08:00,14.8,6.1,30.59,SW,215,4.0,4.0,68,0.00,CLR,,0.00,WeatherDisplay:10.37,2013-11-25 11:08:00,
2013-11-25 06:13:00,14.8,6.5,30.59,SSW,212,5.0,5.0,69,0.00,CLR,,0.00,WeatherDisplay:10.37,2013-11-25 11:13:00,
2013-11-25 06:18:00,14.8,6.5,30.59,SW,220,5.0,5.0,69,0.00,CLR,,0.00,WeatherDisplay:10.37,2013-11-25 11:18:00,
2013-11-25 06:23:00,14.8,6.5,30.59,SSW,211,6.0,6.0,69,0.00,CLR,,0.00,WeatherDisplay:10.37,2013-11-25 11:23:00,
2013-11-25 06:28:00,14.9,6.2,30.59,SW,219,6.0,6.0,68,0.00,CLR,,0.00,WeatherDisplay:10.37,2013-11-25 11:28:00,
2013-11-25 06:33:00,14.9,6.2,30.59,SW,223,8.1,8.1,68,0.00,CLR,,0.00,WeatherDisplay:10.37,2013-11-25 11:33:00,
2013-11-25 06:38:00,14.9,6.2,30.58,SSW,209,7.0,7.0,68,0.00,CLR,,0.00,WeatherDisplay:10.37,2013-11-25 11:38:00,
2013-11-25 06:43:00,15.0,6.3,30.58,SW,216,7.0,7.0,68,0.00,CLR,,0.00,WeatherDisplay:10.37,2013-11-25 11:43:00,
2013-11-25 06:48:00,15.0,6.3,30.58,SW,216,5.0,5.0,68,0.00,CLR,,0.00,WeatherDisplay:10.37,2013-11-25 11:48:00,
2013-11-25 06:53:00,15.0,6.3,30.58,SW,214,6.0,6.0,68,0.00,CLR,,0.00,WeatherDisplay:10.37,2013-11-25 11:53:00,
2013-11-25 06:58:00,15.0,6.3,30.58,SSW,213,4.0,4.0,68,0.00,CLR,,0.00,WeatherDisplay:10.37,2013-11-25 11:58:00,
2013-11-25 07:03:00,14.9,6.2,30.58,SSW,207,5.0,5.0,68,0.00,CLR,,0.00,WeatherDisplay:10.37,2013-11-25 12:03:00,
2013-11-25 07:08:00,14.9,5.9,30.59,SW,214,4.0,4.0,67,0.00,CLR,,0.00,WeatherDisplay:10.37,2013-11-25 12:08:00,
2013-11-25 07:13:00,14.9,5.9,30.58,SSW,207,3.0,3.0,67,0.00,CLR,,0.00,WeatherDisplay:10.37,2013-11-25 12:13:00,
2013-11-25 07:18:00,14.9,5.9,30.58,SW,219,8.1,8.1,67,0.00,CLR,,0.00,WeatherDisplay:10.37,2013-11-25 12:18:00,
2013-11-25 07:23:00,15.0,6.0,30.58,SSW,211,4.6,4.6,67,0.00,CLR,,0.00,WeatherDisplay:10.37,2013-11-25 12:23:00,
2013-11-25 07:28:00,15.0,6.0,30.59,SW,215,5.0,5.0,67,0.00,CLR,,0.00,WeatherDisplay:10.37,2013-11-25 12:28:00,
2013-11-25 07:33:00,15.0,6.0,30.59,SSW,211,3.5,3.5,67,0.00,CLR,,0.00,WeatherDisplay:10.37,2013-11-25 12:33:00,
2013-11-25 07:38:00,15.0,6.0,30.58,SW,228,5.0,5.0,67,0.00,CLR,,0.00,WeatherDisplay:10.37,2013-11-25 12:38:00,
2013-11-25 07:43:00,15.0,6.0,30.58,SSW,206,5.0,5.0,67,0.00,CLR,,0.00,WeatherDisplay:10.37,2013-11-25 12:43:00,
2013-11-25 07:48:00,15.1,6.1,30.58,SSW,206,6.0,6.0,67,0.00,CLR,,0.00,WeatherDisplay:10.37,2013-11-25 12:48:00,
2013-11-25 07:53:00,15.2,6.2,30.58,SSW,205,4.6,4.6,67,0.00,CLR,,0.00,WeatherDisplay:10.37,2013-11-25 12:53:00,
2013-11-25 07:58:00,15.3,6.3,30.58,SSW,200,6.9,6.9,67,0.00,CLR,,0.00,WeatherDisplay:10.37,2013-11-25 12:58:00,
2013-11-25 08:03:00,15.5,6.5,30.58,SSW,194,7.0,7.0,67,0.00,CLR,,0.00,WeatherDisplay:10.37,2013-11-25 13:03:00,
2013-11-25 08:08:00,15.5,6.2,30.58,SSW,194,11.5,11.5,66,0.00,CLR,,0.00,WeatherDisplay:10.37,2013-11-25 13:08:00,
2013-11-25 08:13:00,15.7,6.3,30.58,South,173,7.0,7.0,66,0.00,CLR,,0.00,WeatherDisplay:10.37,2013-11-25 13:13:00,
2013-11-25 08:18:00,15.8,6.4,30.58,SSW,200,8.1,8.1,66,0.00,CLR,,0.00,WeatherDisplay:10.37,2013-11-25 13:18:00,
2013-11-25 08:23:00,16.0,6.6,30.58,South,183,5.8,5.8,66,0.00,CLR,,0.00,WeatherDisplay:10.37,2013-11-25 13:23:00,
2013-11-25 08:28:00,16.1,6.4,30.58,SSW,210,5.0,5.0,65,0.00,CLR,,0.00,WeatherDisplay:10.37,2013-11-25 13:28:00,
2013-11-25 08:33:00,16.2,6.8,30.58,South,180,6.0,6.0,66,0.00,CLR,,0.00,WeatherDisplay:10.37,2013-11-25 13:33:00,
2013-11-25 08:38:00,16.4,7.0,30.58,SW,218,7.0,7.0,66,0.00,CLR,,0.00,WeatherDisplay:10.37,2013-11-25 13:38:00,
2013-11-25 08:43:00,16.5,7.1,30.58,SSW,198,6.0,6.0,66,0.00,CLR,,0.00,WeatherDisplay:10.37,2013-11-25 13:43:00,
2013-11-25 08:48:00,16.8,7.7,30.58,SW,229,5.0,5.0,67,0.00,CLR,,0.00,WeatherDisplay:10.37,2013-11-25 13:48:00,
2013-11-25 08:53:00,17.0,7.6,30.58,SSW,209,6.0,6.0,66,0.00,CLR,,0.00,WeatherDisplay:10.37,2013-11-25 13:53:00,
2013-11-25 08:58:00,17.5,8.4,30.58,South,191,8.1,8.1,67,0.00,CLR,,0.00,WeatherDisplay:10.37,2013-11-25 13:58:00,
2013-11-25 09:03:00,18.0,8.5,30.58,SW,214,6.9,6.9,66,0.00,CLR,,0.00,WeatherDisplay:10.37,2013-11-25 14:03:00,
2013-11-25 09:08:00,18.6,9.1,30.58,SSW,196,7.0,7.0,66,0.00,CLR,,0.00,WeatherDisplay:10.37,2013-11-25 14:08:00,
2013-11-25 09:13:00,19.5,9.3,30.57,SSW,198,12.7,12.7,64,0.00,CLR,,0.00,WeatherDisplay:10.37,2013-11-25 14:13:00,
2013-11-25 09:18:00,19.9,9.3,30.57,SSW,212,10.4,10.4,63,0.00,CLR,,0.00,WeatherDisplay:10.37,2013-11-25 14:18:00,
2013-11-25 09:23:00,20.7,9.7,30.57,SSW,199,6.9,6.9,62,0.00,CLR,,0.00,WeatherDisplay:10.37,2013-11-25 14:23:00,
2013-11-25 09:28:00,21.2,10.2,30.57,SSW,213,13.0,13.0,62,0.00,CLR,,0.00,WeatherDisplay:10.37,2013-11-25 14:28:00,
2013-11-25 09:33:00,21.7,10.3,30.57,South,188,11.5,11.5,61,0.00,CLR,,0.00,WeatherDisplay:10.37,2013-11-25 14:33:00,
2013-11-25 09:38:00,21.9,9.7,30.57,SSW,193,10.4,10.4,59,0.00,CLR,,0.00,WeatherDisplay:10.37,2013-11-25 14:38:00,
2013-11-25 09:43:00,22.0,9.8,30.57,SW,222,9.2,9.2,59,0.00,CLR,,0.00,WeatherDisplay:10.37,2013-11-25 14:43:00,
2013-11-25 09:48:00,22.4,10.2,30.57,South,190,10.4,10.4,59,0.00,CLR,,0.00,WeatherDisplay:10.37,2013-11-25 14:48:00,
2013-11-25 09:53:00,22.6,10.0,30.57,SSW,203,8.1,8.1,58,0.00,CLR,,0.00,WeatherDisplay:10.37,2013-11-25 14:53:00,
2013-11-25 09:58:00,22.8,10.2,30.57,WSW,243,11.5,11.5,58,0.00,CLR,,0.00,WeatherDisplay:10.37,2013-11-25 14:58:00,
2013-11-25 10:03:00,23.3,10.7,30.56,SW,235,8.1,8.1,58,0.00,CLR,,0.00,WeatherDisplay:10.37,2013-11-25 15:03:00,
2013-11-25 10:08:00,23.7,10.7,30.57,SW,223,11.5,11.5,57,0.00,CLR,,0.00,WeatherDisplay:10.37,2013-11-25 15:08:00,
2013-11-25 10:13:00,24.1,11.0,30.56,SSW,194,12.0,12.0,57,0.00,CLR,,0.00,WeatherDisplay:10.37,2013-11-25 15:13:00,
2013-11-25 10:18:00,24.6,11.1,30.56,SSW,213,9.2,9.2,56,0.00,CLR,,0.00,WeatherDisplay:10.37,2013-11-25 15:18:00,
2013-11-25 10:23:00,24.7,11.2,30.56,SSW,209,7.0,7.0,56,0.00,CLR,,0.00,WeatherDisplay:10.37,2013-11-25 15:23:00,
2013-11-25 10:28:00,24.8,10.9,30.55,SSW,196,13.0,13.0,55,0.00,CLR,,0.00,WeatherDisplay:10.37,2013-11-25 15:28:00,
2013-11-25 10:33:00,24.8,10.9,30.55,SSW,206,10.4,10.4,55,0.00,CLR,,0.00,WeatherDisplay:10.37,2013-11-25 15:33:00,
2013-11-25 10:38:00,24.6,10.7,30.55,SSW,207,13.0,13.0,55,0.00,CLR,,0.00,WeatherDisplay:10.37,2013-11-25 15:38:00,
2013-11-25 10:43:00,24.5,10.6,30.55,SSW,193,10.4,10.4,55,0.00,CLR,,0.00,WeatherDisplay:10.37,2013-11-25 15:43:00,
2013-11-25 10:48:00,24.3,10.4,30.54,SW,221,12.0,12.0,55,0.00,CLR,,0.00,WeatherDisplay:10.37,2013-11-25 15:48:00,
2013-11-25 10:53:00,24.2,10.3,30.54,SSW,195,11.5,11.5,55,0.00,CLR,,0.00,WeatherDisplay:10.37,2013-11-25 15:53:00,
2013-11-25 10:58:00,24.4,10.9,30.54,SSW,192,10.4,10.4,56,0.00,CLR,,0.00,WeatherDisplay:10.37,2013-11-25 15:58:00,
2013-11-25 11:03:00,24.7,11.2,30.54,SW,221,11.5,11.5,56,0.00,CLR,,0.00,WeatherDisplay:10.37,2013-11-25 16:03:00,
2013-11-25 11:08:00,25.1,11.6,30.54,SSW,198,9.2,9.2,56,0.00,CLR,,0.00,WeatherDisplay:10.37,2013-11-25 16:08:00,
2013-11-25 11:13:00,25.4,11.5,30.53,SSW,205,13.0,13.0,55,0.00,CLR,,0.00,WeatherDisplay:10.37,2013-11-25 16:13:00,
2013-11-25 11:18:00,25.7,11.7,30.53,SW,215,11.5,11.5,55,0.00,CLR,,0.00,WeatherDisplay:10.37,2013-11-25 16:18:00,
2013-11-25 11:23:00,26.0,11.6,30.52,SW,218,10.4,10.4,54,0.00,CLR,,0.00,WeatherDisplay:10.37,2013-11-25 16:23:00,
2013-11-25 11:28:00,26.2,11.8,30.52,SSW,206,11.0,11.0,54,0.00,CLR,,0.00,WeatherDisplay:10.37,2013-11-25 16:28:00,
2013-11-25 11:33:00,26.4,12.0,30.51,South,176,9.2,9.2,54,0.00,CLR,,0.00,WeatherDisplay:10.37,2013-11-25 16:33:00,
2013-11-25 11:38:00,26.6,11.3,30.51,South,188,12.7,12.7,52,0.00,CLR,,0.00,WeatherDisplay:10.37,2013-11-25 16:38:00,
2013-11-25 11:43:00,26.7,11.8,30.51,SSW,194,11.5,11.5,53,0.00,CLR,,0.00,WeatherDisplay:10.37,2013-11-25 16:43:00,
2013-11-25 11:48:00,26.9,11.6,30.50,SSW,203,11.5,11.5,52,0.00,CLR,,0.00,WeatherDisplay:10.37,2013-11-25 16:48:00,
2013-11-25 11:53:00,27.4,12.5,30.50,SW,218,11.5,11.5,53,0.00,CLR,,0.00,WeatherDisplay:10.37,2013-11-25 16:53:00,
2013-11-25 11:58:00,28.5,13.1,30.49,SSW,207,14.0,14.0,52,0.00,CLR,,0.00,WeatherDisplay:10.37,2013-11-25 16:58:00,
2013-11-25 12:03:00,29.2,12.8,30.49,SSW,205,12.0,12.0,50,0.00,CLR,,0.00,WeatherDisplay:10.37,2013-11-25 17:03:00,
2013-11-25 12:08:00,30.1,13.2,30.48,SW,225,14.0,14.0,49,0.00,CLR,,0.00,WeatherDisplay:10.37,2013-11-25 17:08:00,
2013-11-25 12:13:00,30.9,13.0,30.48,SSW,202,12.7,12.7,47,0.00,CLR,,0.00,WeatherDisplay:10.37,2013-11-25 17:13:00,
2013-11-25 12:18:00,31.4,12.5,30.47,SSW,209,13.0,13.0,45,0.00,CLR,,0.00,WeatherDisplay:10.37,2013-11-25 17:18:00,
2013-11-25 12:23:00,31.9,12.9,30.47,South,188,11.0,11.0,45,0.00,CLR,,0.00,WeatherDisplay:10.37,2013-11-25 17:23:00,
2013-11-25 12:28:00,32.0,12.5,30.46,SSW,199,11.5,11.5,44,0.00,CLR,,0.00,WeatherDisplay:10.37,2013-11-25 17:28:00,
2013-11-25 12:33:00,32.0,13.0,30.46,SSW,199,14.0,14.0,45,0.00,CLR,,0.00,WeatherDisplay:10.37,2013-11-25 17:33:00,
2013-11-25 12:38:00,32.1,13.1,30.46,South,175,14.0,14.0,45,0.00,CLR,,0.00,WeatherDisplay:10.37,2013-11-25 17:38:00,
2013-11-25 12:43:00,32.2,12.7,30.45,South,176,10.4,10.4,44,0.00,CLR,,0.00,WeatherDisplay:10.37,2013-11-25 17:43:00,
2013-11-25 12:48:00,32.1,11.6,30.44,SSW,196,13.8,13.8,42,0.00,CLR,,0.00,WeatherDisplay:10.37,2013-11-25 17:48:00,
2013-11-25 12:53:00,32.0,12.5,30.44,SW,231,9.2,9.2,44,0.00,CLR,,0.00,WeatherDisplay:10.37,2013-11-25 17:53:00,
2013-11-25 12:58:00,32.2,12.7,30.43,SSW,199,8.1,8.1,44,0.00,CLR,,0.00,WeatherDisplay:10.37,2013-11-25 17:58:00,
2013-11-25 13:03:00,32.5,11.9,30.43,SSW,208,11.5,11.5,42,0.00,CLR,,0.00,WeatherDisplay:10.37,2013-11-25 18:03:00,
2013-11-25 13:08:00,32.9,12.8,30.43,SSW,211,12.0,12.0,43,0.00,CLR,,0.00,WeatherDisplay:10.37,2013-11-25 18:08:00,
2013-11-25 13:13:00,33.2,10.9,30.43,SW,223,15.0,15.0,39,0.00,CLR,,0.00,WeatherDisplay:10.37,2013-11-25 18:13:00,
2013-11-25 13:18:00,33.6,11.8,30.42,SSW,199,10.4,10.4,40,0.00,CLR,,0.00,WeatherDisplay:10.37,2013-11-25 18:18:00,
2013-11-25 13:23:00,34.0,12.2,30.42,SSW,203,12.0,12.0,40,0.00,CLR,,0.00,WeatherDisplay:10.37,2013-11-25 18:23:00,
2013-11-25 13:28:00,34.4,12.0,30.42,SW,217,14.0,14.0,39,0.00,CLR,,0.00,WeatherDisplay:10.37,2013-11-25 18:28:00,
2013-11-25 13:33:00,34.5,11.5,30.41,SSW,212,14.0,14.0,38,0.00,CLR,,0.00,WeatherDisplay:10.37,2013-11-25 18:33:00,
2013-11-25 13:38:00,34.8,11.7,30.42,SW,229,14.0,14.0,38,0.00,CLR,,0.00,WeatherDisplay:10.37,2013-11-25 18:38:00,
2013-11-25 13:43:00,34.8,11.7,30.41,SSW,213,13.8,13.8,38,0.00,CLR,,0.00,WeatherDisplay:10.37,2013-11-25 18:43:00,
2013-11-25 13:48:00,34.8,11.7,30.41,SW,222,17.3,17.3,38,0.00,CLR,,0.00,WeatherDisplay:10.37,2013-11-25 18:48:00,
2013-11-25 13:53:00,34.8,11.7,30.41,SW,221,11.5,11.5,38,0.00,CLR,,0.00,WeatherDisplay:10.37,2013-11-25 18:53:00,
2013-11-25 13:58:00,35.1,11.4,30.40,SSW,196,13.0,13.0,37,0.00,CLR,,0.00,WeatherDisplay:10.37,2013-11-25 18:58:00,
2013-11-25 14:03:00,35.3,11.0,30.40,SW,233,12.0,12.0,36,0.00,CLR,,0.00,WeatherDisplay:10.37,2013-11-25 19:03:00,
2013-11-25 14:08:00,35.3,11.0,30.40,South,188,11.0,11.0,36,0.00,CLR,,0.00,WeatherDisplay:10.37,2013-11-25 19:08:00,
2013-11-25 14:13:00,35.6,11.2,30.40,SW,215,9.2,9.2,36,0.00,CLR,,0.00,WeatherDisplay:10.37,2013-11-25 19:13:00,
2013-11-25 14:18:00,35.9,11.5,30.40,SSW,192,13.0,13.0,36,0.00,CLR,,0.00,WeatherDisplay:10.37,2013-11-25 19:18:00,
2013-11-25 14:23:00,36.2,11.8,30.40,SW,230,9.0,9.0,36,0.00,CLR,,0.00,WeatherDisplay:10.37,2013-11-25 19:23:00,
2013-11-25 14:28:00,36.4,11.9,30.40,SW,226,11.5,11.5,36,0.00,CLR,,0.00,WeatherDisplay:10.37,2013-11-25 19:28:00,
2013-11-25 14:33:00,36.4,11.3,30.39,SSW,209,16.1,16.1,35,0.00,CLR,,0.00,WeatherDisplay:10.37,2013-11-25 19:33:00,
2013-11-25 14:38:00,36.1,10.4,30.38,SSW,206,16.1,16.1,34,0.00,CLR,,0.00,WeatherDisplay:10.37,2013-11-25 19:38:00,
2013-11-25 14:43:00,35.9,10.2,30.38,SW,219,15.0,15.0,34,0.00,CLR,,0.00,WeatherDisplay:10.37,2013-11-25 19:43:00,
2013-11-25 14:48:00,35.9,10.9,30.38,SW,225,12.7,12.7,35,0.00,CLR,,0.00,WeatherDisplay:10.37,2013-11-25 19:48:00,
2013-11-25 14:53:00,35.8,10.8,30.37,SSW,202,10.4,10.4,35,0.00,CLR,,0.00,WeatherDisplay:10.37,2013-11-25 19:53:00,
2013-11-25 14:58:00,35.8,10.1,30.36,SSW,202,11.5,11.5,34,0.00,CLR,,0.00,WeatherDisplay:10.37,2013-11-25 19:58:00,
2013-11-25 15:03:00,35.8,10.8,30.36,SSW,202,10.4,10.4,35,0.00,CLR,,0.00,WeatherDisplay:10.37,2013-11-25 20:03:00,
2013-11-25 15:08:00,35.7,10.7,30.36,South,190,10.4,10.4,35,0.00,CLR,,0.00,WeatherDisplay:10.37,2013-11-25 20:08:00,
2013-11-25 15:13:00,35.7,10.0,30.37,SW,223,9.2,9.2,34,0.00,CLR,,0.00,WeatherDisplay:10.37,2013-11-25 20:13:00,
2013-11-25 15:18:00,35.6,11.2,30.37,SSW,201,5.0,5.0,36,0.00,CLR,,0.00,WeatherDisplay:10.37,2013-11-25 20:18:00,
2013-11-25 15:23:00,35.5,9.9,30.37,SW,232,17.3,17.3,34,0.00,CLR,,0.00,WeatherDisplay:10.37,2013-11-25 20:23:00,
2013-11-25 15:28:00,35.2,8.9,30.38,SW,222,15.0,15.0,33,0.00,CLR,,0.00,WeatherDisplay:10.37,2013-11-25 20:28:00,
2013-11-25 15:33:00,34.9,8.7,30.38,SW,230,17.3,17.3,33,0.00,CLR,,0.00,WeatherDisplay:10.37,2013-11-25 20:33:00,
2013-11-25 15:38:00,34.6,9.1,30.38,SW,214,15.0,15.0,34,0.00,CLR,,0.00,WeatherDisplay:10.37,2013-11-25 20:38:00,
2013-11-25 15:43:00,34.5,9.0,30.38,SW,234,15.0,15.0,34,0.00,CLR,,0.00,WeatherDisplay:10.37,2013-11-25 20:43:00,
2013-11-25 17:00:00,30.6,26.3,30.29,SW,224,0.0,0.0,84,0.00,CLR,CLR,0.00,WeatherDisplay:10.37,2013-11-25 22:00:00,
2013-11-25 17:05:00,30.6,26.3,30.29,SW,224,0.0,1.0,84,0.00,CLR,CLR,0.00,WeatherDisplay:10.37,2013-11-25 22:05:00,
2013-11-25 17:10:00,30.6,26.3,30.29,SW,225,0.0,1.0,84,0.00,CLR,CLR,0.00,WeatherDisplay:10.37,2013-11-25 22:10:00,
2013-11-25 17:15:00,30.5,26.0,30.29,SW,225,0.0,0.0,83,0.00,CLR,CLR,0.00,WeatherDisplay:10.37,2013-11-25 22:15:00,
2013-11-25 17:20:00,30.5,26.0,30.29,SW,225,0.0,0.0,83,0.00,CLR,CLR,0.00,WeatherDisplay:10.37,2013-11-25 22:20:00,
2013-11-25 17:23:00,33.9,11.5,30.38,SW,229,18.0,18.0,39,0.00,CLR,,0.00,WeatherDisplay:10.37,2013-11-25 22:23:00,
2013-11-25 17:25:00,30.5,26.0,30.29,SW,225,0.0,1.0,83,0.00,CLR,CLR,0.00,WeatherDisplay:10.37,2013-11-25 22:25:00,
2013-11-25 17:28:00,33.9,11.5,30.39,SW,225,11.5,11.5,39,0.00,CLR,,0.00,WeatherDisplay:10.37,2013-11-25 22:28:00,
2013-11-25 17:30:00,30.5,26.0,30.28,SW,225,0.0,2.0,83,0.00,CLR,CLR,0.00,WeatherDisplay:10.37,2013-11-25 22:30:00,
2013-11-25 17:33:00,33.9,11.5,30.39,SW,230,12.0,12.0,39,0.00,CLR,,0.00,WeatherDisplay:10.37,2013-11-25 22:33:00,
2013-11-25 17:35:00,30.5,26.0,30.28,SW,216,0.0,2.0,83,0.00,CLR,CLR,0.00,WeatherDisplay:10.37,2013-11-25 22:35:00,
2013-11-25 17:38:00,34.0,11.0,30.39,WSW,243,13.8,13.8,38,0.00,CLR,,0.00,WeatherDisplay:10.37,2013-11-25 22:38:00,
2013-11-25 17:40:00,30.5,26.0,30.27,SSW,204,0.0,0.0,83,0.00,CLR,CLR,0.00,WeatherDisplay:10.37,2013-11-25 22:40:00,
2013-11-25 17:43:00,34.1,11.7,30.39,SW,235,12.7,12.7,39,0.00,CLR,,0.00,WeatherDisplay:10.37,2013-11-25 22:43:00,
2013-11-25 17:45:00,30.5,26.0,30.27,SSW,200,1.0,2.0,83,0.00,CLR,CLR,0.00,WeatherDisplay:10.37,2013-11-25 22:45:00,
2013-11-25 17:48:00,34.1,11.1,30.39,WSW,237,12.0,12.0,38,0.00,CLR,,0.00,WeatherDisplay:10.37,2013-11-25 22:48:00,
2013-11-25 17:50:00,30.5,26.0,30.27,South,189,0.0,1.0,83,0.00,CLR,CLR,0.00,WeatherDisplay:10.37,2013-11-25 22:50:00,
2013-11-25 17:53:00,34.2,11.2,30.39,SW,217,11.5,11.5,38,0.00,CLR,,0.00,WeatherDisplay:10.37,2013-11-25 22:53:00,
2013-11-25 17:55:00,30.5,26.2,30.27,South,180,0.0,2.0,84,0.00,CLR,CLR,0.00,WeatherDisplay:10.37,2013-11-25 22:55:00,
2013-11-25 17:58:00,34.2,10.6,30.39,SW,221,11.5,11.5,37,0.00,CLR,,0.00,WeatherDisplay:10.37,2013-11-25 22:58:00,
2013-11-25 18:00:00,30.5,26.2,30.27,South,180,0.0,2.0,84,0.00,CLR,CLR,0.00,WeatherDisplay:10.37,2013-11-25 23:00:00,
2013-11-25 18:03:00,34.3,11.3,30.39,SW,218,11.0,11.0,38,0.00,CLR,,0.00,WeatherDisplay:10.37,2013-11-25 23:03:00,
2013-11-25 18:05:00,30.4,26.1,30.27,South,180,0.0,2.0,84,0.00,CLR,CLR,0.00,WeatherDisplay:10.37,2013-11-25 23:05:00,
2013-11-25 18:08:00,34.2,11.2,30.38,SSW,205,11.5,11.5,38,0.00,CLR,,0.00,WeatherDisplay:10.37,2013-11-25 23:08:00,
2013-11-25 18:10:00,30.4,26.1,30.27,South,180,0.0,3.0,84,0.00,CLR,CLR,0.00,WeatherDisplay:10.37,2013-11-25 23:10:00,
2013-11-25 18:13:00,34.2,11.2,30.38,SW,219,10.4,10.4,38,0.00,CLR,,0.00,WeatherDisplay:10.37,2013-11-25 23:13:00,
2013-11-25 18:15:00,30.4,26.1,30.27,South,180,0.0,1.0,84,0.00,CLR,CLR,0.00,WeatherDisplay:10.37,2013-11-25 23:15:00,
2013-11-25 18:18:00,34.2,11.2,30.38,SW,224,11.5,11.5,38,0.00,CLR,,0.00,WeatherDisplay:10.37,2013-11-25 23:18:00,
2013-11-25 18:20:00,30.4,26.1,30.26,South,180,0.0,1.0,84,0.00,CLR,CLR,0.00,WeatherDisplay:10.37,2013-11-25 23:20:00,
2013-11-25 18:23:00,34.2,11.8,30.38,SW,234,11.0,11.0,39,0.00,CLR,,0.00,WeatherDisplay:10.37,2013-11-25 23:23:00,
2013-11-25 18:25:00,30.3,26.0,30.27,South,180,0.0,1.0,84,0.00,CLR,CLR,0.00,WeatherDisplay:10.37,2013-11-25 23:25:00,
2013-11-25 18:28:00,34.2,11.2,30.38,SW,234,12.0,12.0,38,0.00,CLR,,0.00,WeatherDisplay:10.37,2013-11-25 23:28:00,
2013-11-25 18:30:00,30.3,26.0,30.26,South,180,0.0,1.0,84,0.00,CLR,CLR,0.00,WeatherDisplay:10.37,2013-11-25 23:30:00,
2013-11-25 18:33:00,34.2,11.8,30.38,SW,234,11.5,11.5,39,0.00,CLR,,0.00,WeatherDisplay:10.37,2013-11-25 23:33:00,
2013-11-25 18:35:00,30.3,26.0,30.27,South,180,0.0,0.0,84,0.00,CLR,CLR,0.00,WeatherDisplay:10.37,2013-11-25 23:35:00,
2013-11-25 18:38:00,34.3,11.3,30.38,SW,215,10.4,10.4,38,0.00,CLR,,0.00,WeatherDisplay:10.37,2013-11-25 23:38:00,
2013-11-25 18:40:00,30.3,26.0,30.27,South,180,0.0,0.0,84,0.00,CLR,CLR,0.00,WeatherDisplay:10.37,2013-11-25 23:40:00,
2013-11-25 18:43:00,34.4,12.0,30.38,SW,219,13.8,13.8,39,0.00,CLR,,0.00,WeatherDisplay:10.37,2013-11-25 23:43:00,
2013-11-25 18:45:00,30.3,26.0,30.27,South,180,0.0,0.0,84,0.00,CLR,CLR,0.00,WeatherDisplay:10.37,2013-11-25 23:45:00,
2013-11-25 18:48:00,34.4,12.0,30.38,SW,221,11.0,11.0,39,0.00,CLR,,0.00,WeatherDisplay:10.37,2013-11-25 23:48:00,
2013-11-25 18:50:00,30.3,26.0,30.27,South,180,0.0,0.0,84,0.00,CLR,CLR,0.00,WeatherDisplay:10.37,2013-11-25 23:50:00,
2013-11-25 18:53:00,34.4,12.0,30.38,SW,225,16.0,16.0,39,0.00,CLR,,0.00,WeatherDisplay:10.37,2013-11-25 23:53:00,
2013-11-25 18:55:00,30.3,26.0,30.27,South,180,0.0,0.0,84,0.00,CLR,CLR,0.00,WeatherDisplay:10.37,2013-11-25 23:55:00,
2013-11-25 18:58:00,34.4,12.0,30.38,SW,218,11.0,11.0,39,0.00,CLR,,0.00,WeatherDisplay:10.37,2013-11-25 23:58:00,
2013-11-25 19:00:00,30.3,26.0,30.27,South,180,0.0,0.0,84,0.00,CLR,CLR,0.00,WeatherDisplay:10.37,2013-11-26 00:00:00,
2013-11-25 19:03:00,34.4,12.5,30.38,SW,220,10.0,10.0,40,0.00,CLR,,0.00,WeatherDisplay:10.37,2013-11-26 00:03:00,
2013-11-25 19:05:00,30.3,26.0,30.27,South,180,0.0,0.0,84,0.00,CLR,CLR,0.00,WeatherDisplay:10.37,2013-11-26 00:05:00,
2013-11-25 19:08:00,34.4,12.5,30.38,West,275,12.0,12.0,40,0.00,CLR,,0.00,WeatherDisplay:10.37,2013-11-26 00:08:00,
2013-11-25 19:10:00,30.3,26.0,30.26,South,180,0.0,0.0,84,0.00,CLR,CLR,0.00,WeatherDisplay:10.37,2013-11-26 00:10:00,
2013-11-25 19:13:00,34.4,12.5,30.38,SW,236,11.5,11.5,40,0.00,CLR,,0.00,WeatherDisplay:10.37,2013-11-26 00:13:00,
2013-11-25 19:15:00,30.3,26.0,30.26,South,180,0.0,0.0,84,0.00,CLR,CLR,0.00,WeatherDisplay:10.37,2013-11-26 00:15:00,
2013-11-25 19:18:00,34.4,12.5,30.37,WSW,237,13.0,13.0,40,0.00,CLR,,0.00,WeatherDisplay:10.37,2013-11-26 00:18:00,
2013-11-25 19:20:00,30.3,26.0,30.26,South,180,0.0,0.0,84,0.00,CLR,CLR,0.00,WeatherDisplay:10.37,2013-11-26 00:20:00,
2013-11-25 19:23:00,34.4,12.5,30.37,SSW,213,11.5,11.5,40,0.00,CLR,,0.00,WeatherDisplay:10.37,2013-11-26 00:23:00,
2013-11-25 19:25:00,30.3,26.0,30.26,South,180,0.0,0.0,84,0.00,CLR,CLR,0.00,WeatherDisplay:10.37,2013-11-26 00:25:00,
2013-11-25 19:28:00,34.4,12.5,30.37,SSW,213,11.5,11.5,40,0.00,CLR,,0.00,WeatherDisplay:10.37,2013-11-26 00:28:00,
2013-11-25 19:30:00,30.4,26.1,30.27,South,180,0.0,0.0,84,0.00,CLR,CLR,0.00,WeatherDisplay:10.37,2013-11-26 00:30:00,
2013-11-25 19:33:00,34.4,13.1,30.37,SW,223,12.0,12.0,41,0.00,CLR,,0.00,WeatherDisplay:10.37,2013-11-26 00:33:00,
2013-11-25 19:35:00,30.4,26.1,30.26,South,180,0.0,0.0,84,0.00,CLR,CLR,0.00,WeatherDisplay:10.37,2013-11-26 00:35:00,
2013-11-25 19:38:00,34.4,13.1,30.36,SW,222,9.2,9.2,41,0.00,CLR,,0.00,WeatherDisplay:10.37,2013-11-26 00:38:00,
2013-11-25 19:40:00,30.4,26.1,30.26,South,180,0.0,0.0,84,0.00,CLR,CLR,0.00,WeatherDisplay:10.37,2013-11-26 00:40:00,
2013-11-25 19:43:00,34.4,13.1,30.36,SW,225,9.2,9.2,41,0.00,CLR,,0.00,WeatherDisplay:10.37,2013-11-26 00:43:00,
2013-11-25 19:48:00,34.4,13.1,30.36,WSW,240,8.0,8.0,41,0.00,CLR,,0.00,WeatherDisplay:10.37,2013-11-26 00:48:00,
2013-11-25 19:53:00,34.4,13.1,30.36,SSW,210,9.2,9.2,41,0.00,CLR,,0.00,WeatherDisplay:10.37,2013-11-26 00:53:00,
2013-11-25 19:58:00,34.4,13.1,30.36,SW,226,10.4,10.4,41,0.00,CLR,,0.00,WeatherDisplay:10.37,2013-11-26 00:58:00,
2013-11-25 20:03:00,34.4,13.1,30.36,SW,215,11.5,11.5,41,0.00,CLR,,0.00,WeatherDisplay:10.37,2013-11-26 01:03:00,
2013-11-25 20:08:00,34.5,13.2,30.36,SSW,205,6.0,6.0,41,0.00,CLR,,0.00,WeatherDisplay:10.37,2013-11-26 01:08:00,
2013-11-25 20:13:00,34.4,13.6,30.36,SSW,213,8.1,8.1,42,0.00,CLR,,0.00,WeatherDisplay:10.37,2013-11-26 01:13:00,
2013-11-25 20:18:00,34.4,13.1,30.35,SSW,208,7.0,7.0,41,0.00,CLR,,0.00,WeatherDisplay:10.37,2013-11-26 01:18:00,
2013-11-25 20:23:00,34.4,13.1,30.35,SW,215,7.0,7.0,41,0.00,CLR,,0.00,WeatherDisplay:10.37,2013-11-26 01:23:00,
2013-11-25 20:28:00,34.4,13.1,30.35,SW,233,10.4,10.4,41,0.00,CLR,,0.00,WeatherDisplay:10.37,2013-11-26 01:28:00,
2013-11-25 20:33:00,34.4,14.2,30.35,SSW,213,7.0,7.0,43,0.00,CLR,,0.00,WeatherDisplay:10.37,2013-11-26 01:33:00,
2013-11-25 20:38:00,34.4,13.1,30.35,SW,219,9.2,9.2,41,0.00,CLR,,0.00,WeatherDisplay:10.37,2013-11-26 01:38:00,
2013-11-25 20:43:00,34.5,13.2,30.35,SSW,196,10.4,10.4,41,0.00,CLR,,0.00,WeatherDisplay:10.37,2013-11-26 01:43:00,
2013-11-25 20:48:00,34.5,13.7,30.34,SW,218,10.0,10.0,42,0.00,CLR,,0.00,WeatherDisplay:10.37,2013-11-26 01:48:00,
2013-11-25 20:53:00,34.6,13.3,30.34,SW,219,8.1,8.1,41,0.00,CLR,,0.00,WeatherDisplay:10.37,2013-11-26 01:53:00,
2013-11-25 20:58:00,34.6,13.3,30.34,SW,229,10.0,10.0,41,0.00,CLR,,0.00,WeatherDisplay:10.37,2013-11-26 01:58:00,
2013-11-25 21:03:00,34.6,13.8,30.34,SSW,211,11.0,11.0,42,0.00,CLR,,0.00,WeatherDisplay:10.37,2013-11-26 02:03:00,
2013-11-25 21:08:00,34.7,13.4,30.34,SW,218,10.4,10.4,41,0.00,CLR,,0.00,WeatherDisplay:10.37,2013-11-26 02:08:00,
2013-11-25 21:13:00,34.7,13.4,30.34,SW,234,13.0,13.0,41,0.00,CLR,,0.00,WeatherDisplay:10.37,2013-11-26 02:13:00,
2013-11-25 21:18:00,34.8,13.5,30.34,SW,221,13.0,13.0,41,0.00,CLR,,0.00,WeatherDisplay:10.37,2013-11-26 02:18:00,
2013-11-25 21:23:00,34.9,13.5,30.34,SW,214,10.0,10.0,41,0.00,CLR,,0.00,WeatherDisplay:10.37,2013-11-26 02:23:00,
2013-11-25 21:28:00,34.9,13.5,30.34,SW,229,13.0,13.0,41,0.00,CLR,,0.00,WeatherDisplay:10.37,2013-11-26 02:28:00,
2013-11-25 21:33:00,34.9,13.5,30.35,SW,218,11.5,11.5,41,0.00,CLR,,0.00,WeatherDisplay:10.37,2013-11-26 02:33:00,
2013-11-25 21:38:00,34.9,13.5,30.35,SW,222,13.0,13.0,41,0.00,CLR,,0.00,WeatherDisplay:10.37,2013-11-26 02:38:00,
2013-11-25 21:43:00,34.9,14.1,30.34,SSW,210,12.0,12.0,42,0.00,CLR,,0.00,WeatherDisplay:10.37,2013-11-26 02:43:00,
2013-11-25 21:48:00,34.9,13.5,30.35,SW,228,12.0,12.0,41,0.00,CLR,,0.00,WeatherDisplay:10.37,2013-11-26 02:48:00,
2013-11-25 21:53:00,35.0,14.2,30.35,SW,221,10.4,10.4,42,0.00,CLR,,0.00,WeatherDisplay:10.37,2013-11-26 02:53:00,
2013-11-25 21:58:00,35.1,13.7,30.35,SW,233,12.7,12.7,41,0.00,CLR,,0.00,WeatherDisplay:10.37,2013-11-26 02:58:00,
2013-11-25 22:03:00,35.1,14.3,30.36,SW,234,11.5,11.5,42,0.00,CLR,,0.00,WeatherDisplay:10.37,2013-11-26 03:03:00,
2013-11-25 22:08:00,35.1,14.3,30.36,SW,223,11.5,11.5,42,0.00,CLR,,0.00,WeatherDisplay:10.37,2013-11-26 03:08:00,
2013-11-25 22:13:00,35.2,14.9,30.36,SW,222,14.0,14.0,43,0.00,CLR,,0.00,WeatherDisplay:10.37,2013-11-26 03:13:00,
2013-11-25 22:18:00,35.2,14.9,30.36,SW,229,13.0,13.0,43,0.00,CLR,,0.00,WeatherDisplay:10.37,2013-11-26 03:18:00,
2013-11-25 22:23:00,35.3,15.0,30.36,WSW,240,13.0,13.0,43,0.00,CLR,,0.00,WeatherDisplay:10.37,2013-11-26 03:23:00,
2013-11-25 22:28:00,35.4,15.1,30.36,SW,233,15.0,15.0,43,0.00,CLR,,0.00,WeatherDisplay:10.37,2013-11-26 03:28:00,
2013-11-25 22:33:00,35.5,15.2,30.36,SW,223,13.8,13.8,43,0.00,CLR,,0.00,WeatherDisplay:10.37,2013-11-26 03:33:00,
2013-11-25 22:38:00,35.7,15.9,30.36,SSW,208,15.0,15.0,44,0.00,CLR,,0.00,WeatherDisplay:10.37,2013-11-26 03:38:00,
2013-11-25 22:43:00,35.9,16.1,30.35,WSW,238,16.0,16.0,44,0.00,CLR,,0.00,WeatherDisplay:10.37,2013-11-26 03:43:00,
2013-11-25 22:48:00,36.1,16.3,30.36,WSW,242,18.4,18.4,44,0.00,CLR,,0.00,WeatherDisplay:10.37,2013-11-26 03:48:00,
2013-11-25 22:53:00,36.2,16.4,30.36,West,266,18.4,18.4,44,0.00,CLR,,0.00,WeatherDisplay:10.37,2013-11-26 03:53:00,
2013-11-25 22:58:00,36.4,16.5,30.36,WSW,238,17.3,17.3,44,0.00,CLR,,0.00,WeatherDisplay:10.37,2013-11-26 03:58:00,
2013-11-25 23:03:00,36.6,16.7,30.35,WSW,240,14.0,14.0,44,0.00,CLR,,0.00,WeatherDisplay:10.37,2013-11-26 04:03:00,
2013-11-25 23:08:00,36.6,16.7,30.35,WSW,244,15.0,15.0,44,0.00,CLR,,0.00,WeatherDisplay:10.37,2013-11-26 04:08:00,
2013-11-25 23:13:00,36.7,16.8,30.35,WSW,237,17.3,17.3,44,0.00,CLR,,0.00,WeatherDisplay:10.37,2013-11-26 04:13:00,
2013-11-25 23:18:00,36.8,16.9,30.35,SW,224,16.0,16.0,44,0.00,CLR,,0.00,WeatherDisplay:10.37,2013-11-26 04:18:00,
2013-11-25 23:23:00,36.8,16.9,30.35,SW,236,16.1,16.1,44,0.00,CLR,,0.00,WeatherDisplay:10.37,2013-11-26 04:23:00,
2013-11-25 23:28:00,36.8,17.4,30.35,WSW,250,12.7,12.7,45,0.00,CLR,,0.00,WeatherDisplay:10.37,2013-11-26 04:28:00,
2013-11-25 23:33:00,36.8,17.4,30.35,SW,225,10.4,10.4,45,0.00,CLR,,0.00,WeatherDisplay:10.37,2013-11-26 04:33:00,
2013-11-25 23:38:00,36.7,17.3,30.35,WSW,252,11.0,11.0,45,0.00,CLR,,0.00,WeatherDisplay:10.37,2013-11-26 04:38:00,
2013-11-25 23:43:00,36.7,17.3,30.35,WSW,242,10.4,10.4,45,0.00,CLR,,0.00,WeatherDisplay:10.37,2013-11-26 04:43:00,
2013-11-25 23:48:00,36.7,17.8,30.35,SW,223,17.0,17.0,46,0.00,CLR,,0.00,WeatherDisplay:10.37,2013-11-26 04:48:00,
2013-11-25 23:53:00,36.5,20.5,30.34,SW,220,24.2,24.2,52,0.00,CLR,,0.00,WeatherDisplay:10.37,2013-11-26 04:53:00,
2013-11-25 23:58:00,35.8,22.5,30.34,SSW,211,23.0,23.0,58,0.00,CLR,,0.00,WeatherDisplay:10.37,2013-11-26 04:58:00,